FW1841 Weather Reports


time (UTC)temp
C
wind
direction
speed
KPH
gust
KPH
rain 1hr
cm
rain 24hr
cm
rain mn
cm
humidity
%
barometer
mb
20260503053010 25 115 0.0 0.0 0.00 0.00 0.00 89 1016.7
20260503051509 25 115 1.6 4.8 0.00 0.00 0.00 90 1016.7
20260503050008 25 106 0.0 0.0 0.00 0.00 0.00 90 1016.6
20260503044507 25 106 0.0 0.0 0.00 0.00 0.00 90 1016.8
20260503043006 25 106 0.0 1.6 0.00 0.00 0.00 90 1016.8
20260503041506 25 106 0.0 3.2 0.00 0.00 0.00 90 1016.9
20260503040011 25 106 0.0 0.0 0.00 0.00 0.00 90 1016.7
20260503034503 25 106 0.0 0.0 0.00 0.00 0.00 90 1016.6
20260503033003 25 106 0.0 0.0 0.00 0.00 0.00 90 1016.7
20260503031502 25 106 0.0 0.0 0.00 0.00 0.00 89 1016.7
20260503030001 25 84 0.0 0.0 0.00 0.00 0.00 89 1016.5
20260503024603 25 37 0.0 0.0 0.00 0.00 0.00 89 1016.5
20260503023101 25 86 0.0 0.0 0.00 0.00 0.00 89 1016.7
20260503021558 25 55 0.0 0.0 0.00 0.00 0.00 88 1016.5
20260503020113 25 50 0.0 0.0 0.00 0.00 0.00 88 1016.3
20260503014610 25 96 0.0 0.0 0.00 0.00 0.00 88 1016.1
20260503013115 25 60 0.0 0.0 0.00 0.00 0.00 88 1015.8
20260503011556 25 82 0.0 0.0 0.00 0.00 0.00 88 1015.7
20260503010055 25 107 0.0 0.0 0.00 0.00 0.00 88 1015.5
20260503004603 25 100 0.0 0.0 0.00 0.00 0.00 88 1015.1
20260503003054 26 110 0.0 0.0 0.00 0.00 0.00 88 1014.8
20260503001556 26 91 0.0 8.0 0.00 0.00 0.00 88 1014.6
20260502234603 26 139 1.6 12.9 0.00 0.00 0.00 88 1014.2
20260502233052 26 84 1.6 12.9 0.00 0.00 0.00 87 1014.1
20260502231552 26 153 4.8 12.9 0.00 0.00 0.00 87 1014.0
20260502230052 26 55 1.6 16.1 0.00 0.00 0.00 86 1013.6
20260502224550 27 98 6.4 17.7 0.00 0.00 0.00 86 1013.5
20260502223100 27 168 6.4 16.1 0.00 0.00 0.00 86 1013.6
20260502221549 27 65 4.8 19.3 0.00 0.00 0.00 85 1013.3
20260502220056 28 91 6.4 17.7 0.00 0.00 0.00 82 1013.3
20260502214609 28 117 6.4 19.3 0.00 0.00 0.00 81 1013.1
20260502213105 28 130 9.7 25.7 0.00 0.00 0.00 78 1012.9
20260502211552 28 133 9.7 19.3 0.00 0.00 0.00 79 1013.0
20260502210048 28 102 4.8 19.3 0.00 0.00 0.00 80 1012.9
20260502204545 29 77 9.7 20.9 0.00 0.00 0.00 80 1012.9
20260502203106 28 136 14.5 25.7 0.00 0.00 0.00 78 1012.9
20260502201543 28 138 16.1 25.7 0.00 0.00 0.00 79 1013.1
20260502200045 28 139 14.5 19.3 0.00 0.00 0.00 80 1013.0
20260502194537 28 86 0.0 14.5 0.00 0.00 0.00 84 1013.1
20260502193035 28 56 8.0 17.7 0.00 0.00 0.00 83 1013.3
20260502191541 28 75 11.3 19.3 0.00 0.00 0.00 83 1013.5
20260502190034 27 79 6.4 24.1 0.00 0.00 0.00 84 1013.8
20260502184532 28 80 8.0 20.9 0.00 0.00 0.00 84 1014.0
20260502183032 28 75 4.8 16.1 0.00 0.00 0.00 84 1013.9
20260502181532 28 52 8.0 22.5 0.00 0.00 0.00 84 1014.1
20260502163039 28 69 3.2 24.1 0.00 0.00 0.00 84 1015.1
20260502161535 28 84 12.9 25.7 0.00 0.00 0.00 82 1015.3
20260502151518 28 56 6.4 20.9 0.00 0.00 0.00 83 1015.4
20260502123117 26 121 4.8 16.1 0.00 0.00 0.00 86 1015.9
20260502121559 26 51 1.6 16.1 0.00 0.00 0.00 87 1015.6
20260502120111 26 61 3.2 11.3 0.00 0.00 0.00 88 1015.6
20260502114554 25 63 4.8 16.1 0.00 0.00 0.00 87 1015.5
20260502113053 25 41 1.6 11.3 0.00 0.00 0.00 88 1015.4
20260502111548 25 90 0.0 8.0 0.00 0.00 0.00 88 1015.1
20260502110047 24 71 0.0 4.8 0.00 0.00 0.00 89 1015.0
20260502104545 23 120 0.0 4.8 0.00 0.00 0.00 90 1014.9
20260502103044 23 120 0.0 0.0 0.00 0.00 0.00 90 1014.9
20260502101543 23 121 0.0 0.0 0.00 0.00 0.00 90 1014.8
20260502071532 23 121 0.0 0.0 0.00 0.00 0.00 88 1013.6
20260502070033 24 86 0.0 0.0 0.00 0.00 0.00 88 1013.8
20260502064530 24 87 0.0 0.0 0.00 0.00 0.00 88 1013.6
20260502063030 24 129 0.0 3.2 0.00 0.00 0.00 88 1013.7
20260502061528 24 128 0.0 0.0 0.00 0.00 0.00 88 1013.7
20260502060030 24 92 0.0 0.0 0.00 0.00 0.00 88 1014.0
20260502054533 24 37 0.0 0.0 0.00 0.00 0.00 88 1014.0